Tillbaka till svenska Fidonet
English   Information   Debug  
FILM   0/18
FNEWS_PUBLISH   5090
FN_SYSOP   42250
FN_SYSOP_OLD1   71952
FTP_FIDO   0/2
FTSC_PUBLIC   0/13992
FUNNY   0/4886
GENEALOGY.EUR   0/71
GET_INFO   105
GOLDED   0/408
HAM   4076/16975
HOLYSMOKE   0/6791
HOT_SITES   0/1
HTMLEDIT   0/71
HUB203   466
HUB_100   264
HUB_400   39
HUMOR   0/29
IC   0/2851
INTERNET   0/424
INTERUSER   0/3
IP_CONNECT   719
JAMNNTPD   0/233
JAMTLAND   0/47
KATTY_KORNER   0/41
LAN   0/16
LINUX-USER   0/19
LINUXHELP   0/1155
LINUX   0/22471
LINUX_BBS   0/957
mail   18.68
mail_fore_ok   249
MENSA   0/341
MODERATOR   0/102
MONTE   0/992
MOSCOW_OKLAHOMA   0/1245
MUFFIN   0/783
MUSIC   0/321
N203_STAT   940
N203_SYSCHAT   313
NET203   321
NET204   69
NET_DEV   0/10
NORD.ADMIN   0/101
NORD.CHAT   0/2572
NORD.FIDONET   189
NORD.HARDWARE   0/28
NORD.KULTUR   0/114
NORD.PROG   0/32
NORD.SOFTWARE   0/88
NORD.TEKNIK   0/58
NORD   0/453
OCCULT_CHAT   0/93
OS2BBS   0/787
OS2DOSBBS   0/580
OS2HW   0/42
OS2INET   0/37
OS2LAN   0/134
OS2PROG   0/36
OS2REXX   0/113
OS2USER-L   207
OS2   0/4837
OSDEBATE   0/18996
PASCAL   0/490
PERL   0/457
PHP   0/45
POINTS   0/405
POLITICS   0/29554
POL_INC   0/14731
PSION   103
R20_ADMIN   1134
R20_AMATORRADIO   0/2
R20_BEST_OF_FIDONET   17
R20_CHAT   0/899
R20_DEPP   0/3
R20_DEV   400
R20_ECHO2   1992
R20_ECHOPRES   0/35
R20_ESTAT   0/719
R20_FIDONETPROG...
...RAM.MYPOINT
  0/2
R20_FIDONETPROGRAM   0/22
R20_FIDONET   0/248
R20_FILEFIND   0/24
R20_FILEFOUND   0/22
R20_HIFI   0/3
R20_INFO2   3886
R20_INTERNET   0/12940
R20_INTRESSE   0/60
R20_INTR_KOM   0/99
R20_KANDIDAT.CHAT   42
R20_KANDIDAT   28
R20_KOM_DEV   112
R20_KONTROLL   0/13380
R20_KORSET   0/18
R20_LOKALTRAFIK   0/24
R20_MODERATOR   0/1852
R20_NC   76
R20_NET200   245
R20_NETWORK.OTH...
...ERNETS
  0/13
R20_OPERATIVSYS...
...TEM.LINUX
  0/45
R20_PROGRAMVAROR   0/1
R20_REC2NEC   534
R20_SFOSM   0/341
R20_SF   0/108
R20_SPRAK.ENGLISH   0/1
R20_SQUISH   107
R20_TEST   2
R20_WORST_OF_FIDONET   21
RAR   0/9
RA_MULTI   106
RA_UTIL   0/162
REGCON.EUR   0/2072
REGCON   0/13
SCIENCE   0/1206
SF   0/239
SHAREWARE_SUPPORT   0/5146
SHAREWRE   0/14
SIMPSONS   0/169
STATS_OLD1   0/2539.065
STATS_OLD2   0/2530
STATS_OLD3   0/2395.095
STATS_OLD4   0/1692.25
SURVIVOR   0/495
SYSOPS_CORNER   0/3
SYSOP   0/84
TAGLINES   0/112
TEAMOS2   0/4530
TECH   0/2617
TEST.444   0/105
TRAPDOOR   0/19
TREK   0/755
TUB   0/290
UFO   0/40
UNIX   0/1316
USA_EURLINK   0/102
USR_MODEMS   0/1
VATICAN   0/2740
VIETNAM_VETS   0/14
VIRUS   0/378
VIRUS_INFO   0/201
VISUAL_BASIC   0/473
WHITEHOUSE   0/5187
WIN2000   0/101
WIN32   0/30
WIN95   0/4291
WIN95_OLD1   0/70272
WINDOWS   0/1517
WWB_SYSOP   0/419
WWB_TECH   0/810
ZCC-PUBLIC   0/1
ZEC   4

 
4DOS   0/134
ABORTION   0/7
ALASKA_CHAT   0/506
ALLFIX_FILE   0/1313
ALLFIX_FILE_OLD1   0/7997
ALT_DOS   0/152
AMATEUR_RADIO   0/1039
AMIGASALE   0/14
AMIGA   0/331
AMIGA_INT   0/1
AMIGA_PROG   0/20
AMIGA_SYSOP   0/26
ANIME   0/15
ARGUS   0/924
ASCII_ART   0/340
ASIAN_LINK   0/651
ASTRONOMY   0/417
AUDIO   0/92
AUTOMOBILE_RACING   0/105
BABYLON5   0/17862
BAG   135
BATPOWER   0/361
BBBS.ENGLISH   0/382
BBSLAW   0/109
BBS_ADS   0/5290
BBS_INTERNET   0/507
BIBLE   0/3563
BINKD   0/1119
BINKLEY   0/215
BLUEWAVE   0/2173
CABLE_MODEMS   0/25
CBM   0/46
CDRECORD   0/66
CDROM   0/20
CLASSIC_COMPUTER   0/378
COMICS   0/15
CONSPRCY   0/899
COOKING   42875
COOKING_OLD1   0/24719
COOKING_OLD2   0/40862
COOKING_OLD3   0/37489
COOKING_OLD4   0/35496
COOKING_OLD5   9370
C_ECHO   0/189
C_PLUSPLUS   0/31
DIRTY_DOZEN   0/201
DOORGAMES   0/2397
DOS_INTERNET   0/196
duplikat   6103
ECHOLIST   0/18295
EC_SUPPORT   0/318
ELECTRONICS   0/359
ELEKTRONIK.GER   1534
ENET.LINGUISTIC   0/13
ENET.POLITICS   0/4
ENET.SOFT   0/11701
ENET.SYSOP   34573
ENET.TALKS   0/32
ENGLISH_TUTOR   0/2000
EVOLUTION   0/1335
FDECHO   0/217
FDN_ANNOUNCE   0/7068
FIDONEWS   25344
FIDONEWS_OLD1   0/49742
FIDONEWS_OLD2   0/35949
FIDONEWS_OLD3   0/30874
FIDONEWS_OLD4   0/37224
FIDO_SYSOP   12979
FIDO_UTIL   0/180
FILEFIND   0/209
FILEGATE   0/212
Möte HAM, 16975 texter
 lista första sista föregående nästa
Text 965, 764 rader
Skriven 2006-04-21 01:31:18 av Amsat List (1:323/120.0)
Ärende: 
========
SB KEPS @ AMSAT  $ORB06110.O
Orbital Elements  06110.OSCAR

HR AMSAT ORBITAL ELEMENTS FOR OSCAR SATELLITES
FROM WA5QGD FORT WORTH,TX April 20, 2006
Send SUBSCRIBE KEPS/UNSUBSCRIBE KEPS to majordomo@amsat.org only
BID: ORB06110.O
TO ALL RADIO AMATEURS BT

Satellite: AO-07
Catalog number: 07530
Epoch time:      06109.68843725
Element set:    0587
Inclination:      101.5774 deg
RA of node:       154.0665 deg
Eccentricity:    0.0012092
Arg of perigee:   000.8796 deg
Mean anomaly:     359.2295 deg
Mean motion:   12.53572157 rev/day
Decay rate:       -2.8e-07 rev/day^2
Epoch rev:           43805
Checksum:              312

Satellite: AO-10
Catalog number: 14129
Epoch time:      06108.06179569
Element set:    0275
Inclination:      027.4535 deg
RA of node:       339.3101 deg
Eccentricity:    0.6029326
Arg of perigee:   277.9835 deg
Mean anomaly:     021.5130 deg
Mean motion:   02.05865196 rev/day
Decay rate:      -1.88e-06 rev/day^2
Epoch rev:           17181
Checksum:              305

Satellite: UO-11
Catalog number: 14781
Epoch time:      06109.61237502
Element set:    0047
Inclination:      098.2088 deg
RA of node:       118.5836 deg
Eccentricity:    0.0010213
Arg of perigee:   092.6187 deg
Mean anomaly:     267.6167 deg
Mean motion:   14.79409016 rev/day
Decay rate:       3.15e-06 rev/day^2
Epoch rev:           18710
Checksum:              295

Satellite: RS-10/11
Catalog number: 18129
Epoch time:      06110.75060898
Element set:     966
Inclination:      082.9287 deg
RA of node:       010.6472 deg
Eccentricity:    0.0010142
Arg of perigee:   253.4266 deg
Mean anomaly:     106.5781 deg
Mean motion:   13.72773165 rev/day
Decay rate:        3.7e-07 rev/day^2
Epoch rev:           94327
Checksum:              304

Satellite: RS-15
Catalog number: 23439
Epoch time:      06109.92295029
Element set:    0983
Inclination:      064.8272 deg
RA of node:       331.4709 deg
Eccentricity:    0.0167436
Arg of perigee:   263.8859 deg
Mean anomaly:     094.2965 deg
Mean motion:   11.27551688 rev/day
Decay rate:       -3.9e-07 rev/day^2
Epoch rev:           46597
Checksum:              359

Satellite: FO-29
Catalog number: 24278
Epoch time:      06109.60022031
Element set:     208
Inclination:      098.5136 deg
RA of node:       122.2305 deg
Eccentricity:    0.0351485
Arg of perigee:   101.7241 deg
Mean anomaly:     262.3548 deg
Mean motion:   13.52920392 rev/day
Decay rate:       -4.2e-07 rev/day^2
Epoch rev:           47762
Checksum:              273

Satellite: SO-33
Catalog number: 25509
Epoch time:      06109.44484455
Element set:    0632
Inclination:      031.4314 deg
RA of node:       101.3742 deg
Eccentricity:    0.0355307
Arg of perigee:   322.9485 deg
Mean anomaly:     034.7048 deg
Mean motion:   14.28090721 rev/day
Decay rate:      -1.35e-06 rev/day^2
Epoch rev:           39063
Checksum:              283

Satellite: AO-40
Catalog number: 26609
Epoch time:      06110.36661608
Element set:     706
Inclination:      007.0269 deg
RA of node:       245.5096 deg
Eccentricity:    0.7938059
Arg of perigee:   152.3550 deg
Mean anomaly:     294.7607 deg
Mean motion:   01.25585918 rev/day
Decay rate:      -3.30e-06 rev/day^2
Epoch rev:            2512
Checksum:              307

Satellite: VO-52
Catalog number: 28650
Epoch time:      06110.22414805
Element set:     302
Inclination:      097.8732 deg
RA of node:       184.2824 deg
Eccentricity:    0.0027167
Arg of perigee:   187.8082 deg
Mean anomaly:     172.2747 deg
Mean motion:   14.81089022 rev/day
Decay rate:        9.4e-07 rev/day^2
Epoch rev:            5180
Checksum:              292

/EX
SB KEPS @ AMSAT  $ORB06110.D
Orbital Elements  06110.MICROS

HR AMSAT ORBITAL ELEMENTS FOR THE MICROSATS
FROM WA5QGD FORT WORTH,TX April 20, 2006
Send SUBSCRIBE KEPS/UNSUBSCRIBE KEPS to majordomo@amsat.org only
BID: ORB06110.D
TO ALL RADIO AMATEURS BT

Satellite: AO-16
Catalog number: 20439
Epoch time:      06110.56308987
Element set:     726
Inclination:      098.1899 deg
RA of node:       123.7424 deg
Eccentricity:    0.0011369
Arg of perigee:   011.9178 deg
Mean anomaly:     348.2277 deg
Mean motion:   14.31717555 rev/day
Decay rate:        2.2e-07 rev/day^2
Epoch rev:           84807
Checksum:              322

Satellite: WO-18
Catalog number: 20441
Epoch time:      06109.50408425
Element set:    0926
Inclination:      098.1944 deg
RA of node:       127.3484 deg
Eccentricity:    0.0012532
Arg of perigee:   013.0665 deg
Mean anomaly:     347.0847 deg
Mean motion:   14.31787990 rev/day
Decay rate:        1.8e-07 rev/day^2
Epoch rev:           84798
Checksum:              317

Satellite: LO-19
Catalog number: 20442
Epoch time:      06109.62477266
Element set:    0666
Inclination:      098.1945 deg
RA of node:       132.2808 deg
Eccentricity:    0.0012513
Arg of perigee:   013.2204 deg
Mean anomaly:     346.9316 deg
Mean motion:   14.31961091 rev/day
Decay rate:        3.3e-07 rev/day^2
Epoch rev:           84807
Checksum:              291

Satellite: UO-22
Catalog number: 21575
Epoch time:      06110.70684755
Element set:     679
Inclination:      098.2914 deg
RA of node:       070.2310 deg
Eccentricity:    0.0006377
Arg of perigee:   243.8768 deg
Mean anomaly:     116.1800 deg
Mean motion:   14.39543464 rev/day
Decay rate:        4.4e-07 rev/day^2
Epoch rev:           77474
Checksum:              311

Satellite: KO-23
Catalog number: 22077
Epoch time:      06110.53380526
Element set:     768
Inclination:      066.0851 deg
RA of node:       222.7862 deg
Eccentricity:    0.0002587
Arg of perigee:   174.6706 deg
Mean anomaly:     185.4329 deg
Mean motion:   12.86436087 rev/day
Decay rate:       -3.7e-07 rev/day^2
Epoch rev:           64312
Checksum:              307

